{"data":{"norad_id":59783,"intl_designator":"2024-093B","name":"STARLINK-31868","alt_names":[],"object_type":"PAYLOAD","status":"ACTIVE","operator":null,"country":"US","launch_date":"2024-05-18","launch_site_code":"AFETR","launch_vehicle":null,"mission":null,"orbit_class":"UNKNOWN","rcs_meters":null,"size_class":null,"mass_kg":null,"dimensions":null,"purposes":["comms"],"wikipedia_slug":null,"has_3d_model":false,"image_url":null,"decayed_at":null,"tle_current":{"epoch":"2026-09-21T11:15:24.751872Z","epoch_age_seconds":90773,"freshness":"FRESH","line1":"1 59783U 24093B   26264.46903648 -.00000566  00000+0 -11065-4 0  9995","line2":"2 59783  43.0014 180.0135 0000831 276.7271  83.3486 15.27575589132673","mean_motion":15.27575589,"eccentricity":8.31e-5,"inclination_deg":43.0014,"raan_deg":180.0135,"arg_perigee_deg":276.7271,"mean_anomaly_deg":83.3486,"bstar":-1.1065e-5,"rev_number":13267,"period_min":94.267020916632,"perigee_km":482.49213853011,"apogee_km":483.63246985446,"semimajor_km":6861.1993041923,"source":"CELESTRAK","updated_at":"2026-09-22T09:00:49.071269Z"}}}